Location: Kershaw
(34.5481°N, 80.5823°W)
Time: 17:08:02
(UTC+00:00)

Vanguard 1 - Visible Passes

Search period start: 26 September 2022 00:00
Search period end: 06 October 2022 00:00
Orbit: 649 x 3832 km, 34.2° (Epoch: 25 September)

Date Brightness Start Highest point End Pass type
(mag) Time Alt. Az. Time Alt. Az. Time Alt. Az.
26 Sep 9.4 00:50:48 10° W 00:56:57 75° SSW 00:58:01 53° SE visible
27 Sep 9.5 01:11:46 10° W 01:17:33 60° SSW 01:17:34 60° SSW visible
28 Sep 10.4 01:32:44 10° W 01:37:08 39° SW 01:37:08 39° SW visible
28 Sep 10.1 23:30:18 10° W 23:38:48 85° S 23:43:53 10° E visible
29 Sep 11.3 01:53:49 10° W 01:56:42 24° WSW 01:56:42 24° WSW visible
29 Sep 10.0 23:51:27 10° W 23:59:29 75° SSW 00:03:38 16° ESE visible
30 Sep 12.0 02:15:10 10° W 02:16:19 14° WSW 02:16:19 14° WSW visible
01 Oct 10.1 00:12:33 10° W 00:20:05 62° SSW 00:23:14 23° SE visible
02 Oct 10.4 00:33:41 10° W 00:40:36 46° SSW 00:42:53 28° SSE visible
03 Oct 10.8 00:54:54 10° W 01:00:59 33° SSW 01:02:33 27° S visible
04 Oct 11.3 01:16:22 10° W 01:21:15 22° SW 01:22:15 21° SSW visible
05 Oct 11.9 01:38:30 10° WSW 01:41:25 14° SW 01:41:59 13° SW visible
05 Oct 11.0 23:33:41 10° W 23:42:52 50° SSW 23:48:16 10° SE visible
